Probability
0 0 0 0 0 0 0 0 0 0 0 0 0 0 0 0 1 3 4 6 6 5 5 6 9 18 30 45 56 66 74 75 65 60 67 67 53 44 34 19 10 5 6 8
0 0 0 0 0 0 0 0 0 0 0 0 0 0 0 0 2 4 5 8 9 9 9 11 15 23 35 46 55 63 70 75 73 70 77 79 69 58 49 38 22 10 7 8
0 0 0 0 0 0 0 0 0 0 0 0 0 0 0 0 2 5 7 11 13 14 16 18 21 25 31 39 47 54 62 73 80 81 87 91 84 73 67 58 39 19 9 9
0 0 0 0 0 0 0 0 0 0 0 0 0 0 0 0 1 3 6 10 12 12 14 16 17 18 20 26 33 40 50 63 74 79 85 88 83 73 65 57 44 25 11 8
0 0 0 0 0 0 0 0 0 0 0 0 0 0 0 0 0 1 2 5 5 4 5 7 7 8 10 13 18 23 32 42 53 61 66 70 66 56 47 41 35 25 13 8
0 0 0 0 0 0 0 0 0 0 0 0 0 0 0 0 0 0 0 1 1 0 0 1 1 1 2 4 6 9 12 18 25 31 37 40 38 32 28 26 23 18 13 9
0 0 0 0 0 0 0 0 0 0 0 0 0 0 0 0 0 0 0 0 0 0 0 0 0 0 0 0 1 1 1 3 6 8 11 14 14 13 14 14 13 11 8 7
0 0 0 0 0 0 0 0 0 0 0 0 0 0 0 0 0 0 0 0 0 0 0 0 0 0 0 0 0 0 0 0 0 0 1 2 2 3 4 5 5 4 3 4
0 0 0 0 0 0 0 0 0 0 0 0 0 0 0 0 0 0 0 0 0 0 0 0 0 0 0 0 0 0 0 0 0 0 0 0 0 0 0 1 1 0 1 2
0 0 0 0 0 0 0 0 0 0 0 0 0 0 0 0 0 0 0 0 0 0 0 0 0 0 0 0 0 0 0 0 0 0 0 0 0 0 0 0 0 0 1 2
0 0 0 0 0 0 0 0 0 0 0 0 0 0 0 0 0 0 0 0 0 0 0 0 0 0 0 0 0 0 0 0 0 0 0 0 0 0 0 0 0 0 1 1
0 0 0 0 0 0 0 0 0 0 0 0 0 0 0 0 0 0 0 0 0 0 0 0 0 0 0 0 0 0 0 0 0 0 0 0 0 0 0 0 0 0 0 0
0 0 0 0 0 0 0 0 0 0 0 0 0 0 0 0 0 0 0 0 0 0 0 0 0 0 0 0 0 0 0 0 0 0 0 0 0 0 0 0 0 0 0 0
0 0 0 0 0 0 0 0 0 0 0 0 0 0 0 0 0 0 0 0 0 0 0 0 0 0 0 0 0 0 0 0 0 0 0 0 0 0 0 0 0 0 0 0
0 0 0 0 0 0 0 0 0 0 0 0 0 0 0 0 0 0 0 0 0 0 0 0 0 0 0 0 0 0 0 0 0 0 0 0 0 0 0 0 0 0 0 0
0 0 0 0 0 0 0 0 0 0 0 0 0 0 0 0 0 0 0 0 0 0 0 0 0 0 0 0 0 0 0 0 0 0 0 0 0 0 0 0 0 0 0 0
0 0 0 0 0 0 0 0 0 0 0 0 0 0 0 0 0 0 0 0 0 0 0 0 0 0 0 0 0 0 0 0 0 0 0 0 0 0 0 0 0 0 0 0
0 0 0 0 0 0 0 0 0 0 0 0 0 0 0 0 0 0 0 0 0 0 0 0 0 0 0 0 0 0 0 0 0 0 0 0 0 0 0 0 0 0 0 0
0 0 0 0 0 0 0 0 0 0 0 0 0 0 0 0 0 0 0 0 0 0 0 0 0 0 0 0 0 0 0 0 0 0 0 0 0 0 0 0 0 0 0 0
0 0 0 0 0 0 0 0 0 0 0 0 0 0 0 0 0 0 0 0 0 0 0 0 0 0 0 0 0 0 0 0 0 0 0 0 0 0 0 0 0 0 0 0
0 0 0 0 0 0 0 0 0 0 0 0 0 0 0 0 0 0 0 0 0 0 0 0 0 0 0 0 0 0 0 0 0 0 0 0 0 0 0 0 0 0 0 0
0 0 0 0 0 0 0 0 0 0 0 0 0 0 0 0 0 0 0 0 0 0 0 0 0 0 0 0 0 0 0 0 0 0 0 0 0 0 0 0 0 0 0 0
0 0 0 0 0 0 0 0 0 0 0 0 0 0 0 0 0 0 0 0 0 0 0 0 0 0 0 0 0 0 0 0 0 0 0 0 0 0 0 0 0 0 0 0
0 0 0 0 0 0 0 0 0 0 0 0 0 0 0 0 0 0 0 0 0 0 0 0 0 0 0 0 0 0 0 0 0 0 0 0 0 0 0 0 0 0 0 0
0 0 0 0 0 0 0 0 0 0 0 0 0 0 0 0 0 0 0 0 0 0 0 0 0 0 0 0 0 0 0 0 0 0 0 0 0 0 0 0 0 0 0 0
0 0 0 0 0 0 0 0 0 0 0 0 0 0 0 0 0 0 0 0 0 0 0 0 0 0 0 0 0 0 0 0 0 0 0 0 0 0 0 0 0 0 0 0
0 0 0 0 0 0 0 0 0 0 0 0 0 0 0 0 0 0 0 0 0 0 0 0 0 0 0 0 0 0 0 0 0 0 0 0 0 0 0 0 0 0 0 0
Wind_Speed
12 9 6 9 10 9 7 4 1 2 7 11 11 11 12 13 12 10 7 6 5 3 1 1 1 1 0 1 3 7 8 6 5 4 5 5 4 4 5 4 3 4 5 5
13 10 7 6 13 9 7 8 7 8 8 13 13 12 13 15 14 11 8 7 6 5 4 3 3 3 3 2 1 3 5 5 5 3 4 4 3 3 4 4 2 2 3 4
10 11 6 8 15 15 14 15 12 13 12 15 16 15 15 16 16 14 12 12 11 10 9 9 7 4 3 2 3 3 3 4 4 3 3 3 2 3 3 3 4 4 3 4
8 9 6 5 9 11 10 16 19 17 18 19 18 10 13 17 16 15 14 13 12 10 11 10 9 7 6 7 6 7 7 6 4 2 2 1 2 3 3 3 3 4 4 4
5 6 4 6 11 13 7 8 18 19 20 21 22 12 13 19 15 11 10 9 8 8 9 9 9 8 8 9 10 10 9 8 6 5 4 2 2 3 3 3 3 4 4 3
5 5 5 7 16 18 5 4 16 18 18 19 19 13 12 18 13 9 7 6 7 7 8 8 8 9 10 10 9 8 7 6 6 5 4 3 3 3 3 2 3 3 3 4
7 4 2 6 14 11 7 7 14 15 16 16 13 11 15 16 10 6 5 6 6 6 6 6 7 8 9 8 6 5 5 5 5 4 4 3 3 3 2 2 2 3 3 3
7 6 4 10 10 8 6 8 11 13 14 15 15 15 15 14 9 4 3 4 5 4 4 5 6 6 6 5 4 3 3 4 4 4 4 4 3 3 3 2 2 3 2 2
5 3 4 5 5 6 6 9 10 12 14 15 15 15 15 13 10 3 2 2 2 1 2 4 5 5 4 3 3 2 3 3 3 4 4 5 4 4 3 3 2 2 2 1
3 3 7 5 8 9 9 9 11 12 13 14 14 15 14 13 10 5 1 2 1 2 0 3 3 3 4 3 4 2 2 2 3 5 5 5 5 5 4 4 4 3 2 1
4 6 6 7 11 11 11 11 12 12 13 13 14 14 13 12 11 6 1 2 1 2 1 2 3 3 4 3 5 4 3 4 5 4 4 4 5 5 5 5 4 3 3 3
3 7 7 9 10 11 11 12 12 13 14 13 12 13 12 11 10 7 3 2 2 3 3 0 2 3 4 2 3 4 4 4 3 2 2 2 3 4 8 8 10 11 10 7
4 6 7 8 10 10 10 11 12 12 13 13 12 11 12 10 9 8 5 2 2 3 2 1 1 2 3 3 1 3 3 3 2 2 2 1 1 2 3 4 8 12 12 12
2 5 7 8 9 10 11 12 11 11 11 11 11 11 11 10 10 10 8 4 2 3 3 2 1 1 2 2 1 1 2 2 1 1 1 1 1 1 2 2 3 4 7 10
2 4 6 8 9 10 10 11 12 11 12 12 11 11 11 12 11 11 10 6 2 3 3 3 2 2 3 2 1 1 2 2 2 2 1 1 1 1 3 4 3 2 2 3
3 5 7 8 10 11 12 12 11 12 12 12 11 12 12 12 11 11 9 5 3 3 4 3 2 3 4 3 1 1 3 3 2 2 1 1 1 1 3 3 3 3 3 2
4 5 7 9 10 11 11 11 11 11 12 12 12 13 13 12 11 10 8 5 4 4 4 4 3 4 4 3 2 1 2 4 1 2 1 2 1 2 3 3 3 3 3 3
3 5 7 9 9 10 11 11 11 12 12 12 12 12 12 11 11 11 10 7 4 4 4 3 4 5 5 3 2 0 1 3 2 1 2 2 2 3 3 3 4 4 3 2
4 6 7 8 9 9 10 10 11 11 12 11 12 12 11 11 10 10 10 7 5 4 4 3 6 6 5 4 2 1 1 2 2 2 2 2 1 2 3 3 3 3 3 2
5 6 7 8 9 9 9 10 11 10 10 11 11 11 11 11 11 11 10 7 4 4 3 5 7 5 6 6 3 1 1 1 2 2 1 2 2 2 3 3 4 3 2 2
5 6 7 8 8 9 9 10 9 10 10 10 10 11 11 11 11 10 8 7 5 3 2 7 5 4 5 7 4 2 1 2 2 2 1 2 2 3 3 3 3 3 3 3
5 5 6 7 8 8 8 9 9 10 10 10 10 11 11 10 10 9 9 6 4 2 3 4 3 6 9 9 4 2 2 2 2 2 2 1 2 3 3 4 3 3 4 4
4 5 7 8 8 9 9 9 9 9 9 10 11 11 10 8 7 7 8 6 2 3 3 3 6 14 13 6 4 3 3 2 2 2 2 2 2 3 3 4 4 4 4 4
5 6 7 8 8 8 9 8 7 7 9 9 9 10 9 7 6 6 6 6 3 5 3 5 14 15 11 4 4 4 3 3 3 2 2 2 3 3 4 4 4 4 4 5
6 7 7 6 6 5 6 8 8 7 7 7 9 9 8 7 7 7 7 5 2 5 3 8 14 14 7 4 5 4 3 3 4 3 3 3 3 4 4 4 4 4 4 4
6 5 4 6 6 4 5 5 5 4 5 6 6 7 8 7 8 7 5 4 4 4 4 5 7 8 5 4 5 5 5 5 4 3 3 3 4 4 4 5 6 4 4 4
6 6 4 4 5 4 4 3 4 4 5 5 7 8 8 8 8 7 6 3 3 4 4 5 6 6 4 4 5 5 5 5 4 4 3 4 4 4 5 5 5 5 4 4
Wind_Direction
318 311 292 292 309 306 302 304 308 43 43 10 349 335 340 346 344 340 343 337 324 307 306 141 156 266 244 150 160 158 161 165 173 184 166 172 198 188 196 217 213 189 177 175
319 320 315 346 1 353 11 27 48 46 27 357 352 357 7 4 359 356 354 1 3 12 26 40 70 68 52 48 76 139 150 156 155 168 159 174 202 215 197 193 216 230 179 171
319 322 317 43 17 25 36 35 41 41 15 357 359 5 20 11 6 9 17 24 26 29 32 41 48 53 67 53 45 58 83 113 127 144 151 161 198 238 225 192 204 232 223 180
321 341 43 28 354 0 22 42 30 20 11 3 353 354 41 19 11 14 21 26 24 28 33 34 37 41 54 56 46 42 40 40 53 48 55 146 212 241 236 221 209 222 237 207
344 357 56 359 348 336 322 40 21 8 2 360 353 358 20 8 3 11 17 18 17 25 36 34 30 30 43 52 47 40 29 23 25 19 9 346 280 268 258 247 232 220 228 216
2 10 25 337 328 323 299 43 5 355 354 356 359 3 345 341 348 7 15 14 21 28 34 33 30 36 47 47 45 38 25 19 18 13 360 346 333 308 290 275 258 242 231 215
16 41 64 324 337 353 40 339 329 338 343 347 349 332 319 328 340 359 22 19 27 38 33 28 35 50 51 45 42 35 24 18 12 6 350 4 359 343 328 309 296 277 262 239
4 22 17 2 3 19 345 318 322 329 331 332 328 325 326 329 329 349 39 36 29 39 40 33 34 57 65 39 22 36 29 19 13 9 10 26 21 4 350 339 314 294 287 281
358 13 2 356 12 5 342 327 324 322 321 323 323 326 327 327 328 341 68 61 33 34 78 69 50 47 58 39 356 18 41 29 26 27 37 32 20 13 2 355 342 325 304 286
342 16 359 18 9 357 345 328 319 317 316 318 320 322 324 326 326 331 105 106 282 283 133 106 97 83 63 9 332 349 57 53 57 46 41 43 33 21 16 16 8 357 358 356
320 9 351 351 354 343 335 329 325 322 318 317 317 319 322 324 324 324 317 143 248 296 314 124 123 110 93 22 335 341 38 62 75 69 57 56 61 39 18 40 33 19 3 8
340 1 336 328 337 338 333 330 328 322 319 318 317 317 321 322 321 319 308 170 189 256 287 330 98 101 110 81 333 1 45 44 53 80 74 73 105 94 52 53 52 52 45 43
333 342 320 322 333 334 327 326 323 318 315 316 320 322 322 320 320 321 313 261 206 210 234 268 88 84 114 122 17 5 52 55 38 62 86 63 92 128 123 79 64 55 48 49
324 315 323 332 328 329 329 327 324 323 324 325 327 326 324 323 325 324 316 294 229 211 214 218 193 156 112 111 110 27 72 101 38 31 62 53 44 64 97 110 92 71 55 51
277 314 319 323 329 333 332 332 333 334 334 333 331 329 329 327 322 316 308 297 243 213 227 226 214 163 120 102 37 35 47 55 44 29 13 56 53 73 87 92 96 97 100 73
301 314 326 331 332 332 334 337 333 331 332 331 331 330 326 319 312 304 299 289 261 229 224 225 217 156 139 142 137 96 96 82 22 338 339 56 49 80 93 98 92 81 76 62
285 313 326 326 327 328 329 329 327 327 327 327 328 324 320 317 315 314 313 299 269 248 234 216 186 145 139 150 174 191 144 133 167 282 337 62 61 83 98 102 98 90 80 56
267 305 310 313 316 320 320 323 325 324 321 321 321 320 321 319 316 312 308 299 271 243 239 222 161 143 145 157 173 255 152 151 173 134 78 68 62 90 102 105 107 107 115 106
263 290 301 306 310 310 314 318 318 316 317 318 319 319 316 312 309 306 304 296 281 256 232 194 156 151 148 141 142 209 249 125 117 103 101 107 101 108 115 117 118 117 116 114
262 287 299 306 307 310 310 309 310 313 315 316 317 317 317 316 314 312 308 295 270 251 229 163 157 164 148 138 156 227 204 120 114 114 114 121 115 117 122 123 127 128 123 119
263 284 298 303 306 305 303 305 310 312 314 317 318 316 314 312 309 305 299 292 280 256 162 145 158 153 139 138 169 214 167 135 120 121 132 126 124 127 129 126 127 125 114 102
254 281 295 301 303 303 306 310 309 313 319 319 316 313 312 309 309 305 294 277 269 186 148 163 173 142 137 140 167 173 163 140 122 120 121 119 120 120 119 117 111 102 95 91
268 291 300 303 305 308 309 308 314 321 317 314 312 311 309 304 299 295 296 291 273 185 180 178 153 139 142 152 160 154 164 150 136 136 131 118 107 107 107 107 103 99 95 91
272 286 292 296 303 307 307 313 316 311 308 309 308 311 313 307 299 290 285 286 237 182 202 161 148 149 155 167 150 155 162 146 134 130 123 110 103 103 102 101 101 99 97 94
265 277 287 301 303 301 306 308 306 307 309 312 315 321 321 313 303 299 297 296 192 168 159 157 160 158 170 173 152 157 150 137 139 135 125 112 102 104 109 110 107 105 102 98
268 274 278 281 285 284 283 286 296 306 311 313 318 324 319 311 303 296 285 260 195 184 156 151 165 174 200 168 148 148 136 130 133 141 143 134 127 119 115 114 111 108 109 108
264 264 256 253 256 255 268 285 294 302 309 314 323 318 311 311 311 307 300 275 166 176 161 160 171 188 193 141 138 143 142 147 155 156 147 137 130 124 124 123 118 114 113 115